World > North America > United States > Texas > Washington

Hourly Washington, TX Regional Weather

Feedback E-mail the Weather

Quick WX

Washington, TX Weather Maps

°F °C°F °C
Washington Weather Map
UTC Time: 8/12/2022, 20:37
Your Time:

Washington, TX Regional Weather

Expires:202208122100;;986302
ASUS44 KSJT 122015
RWRSJT
WEST CENTRAL TEXAS REGIONAL WEATHER ROUNDUP
NATIONAL WEATHER SERVICE SAN ANGELO TX
300 PM CDT FRI AUG 12 2022

NOTE: "FAIR" INDICATES FEW OR NO CLOUDS BELOW 12,000 FEET WITH NO
SIGNIFICANT WEATHER AND/OR OBSTRUCTIONS TO VISIBILITY.


TXZ163-177-195>197-199-213-226-237-122100-
SOUTHEAST TEXAS
  
CITY           SKY/WX    TMP DP  RH WIND       PRES   REMARKS
COLLEGE STN    SUNNY    100  67  33 NE14G21   29.93F                  
CALDWELL       MOCLDY    96  68  40 N10G20    29.95F                  
CROCKETT       MOCLDY    91  70  49 E12G18    29.97S                  
BRENHAM        MOSUNNY   95  73  48 NE3       29.94F                  
HUNTSVILLE     PTSUNNY   94  68  42 VRB7      29.95F                  
CONROE         PTSUNNY   87  71  58 E5        29.96F                  
HOUSTON BUSH   PTSUNNY   94  73  50 NE8G18    29.93F                  
HOUSTON HOBBY  PTSUNNY   93  73  52 E13G22    29.93F                  
PERLAND        MOSUNNY   91  74  57 E10       29.95F                  
WHARTON        CLOUDY    81  74  78 SE10      29.96S                  
$$


SKY/WX - Weather  TMP - Temperature  DP - Dew Point  RH - Humidity
WIND - Wind Direction/Speed PRES - Barometric Pressure VSB - Visibility
WCI - Wind Chill Index E13G22 Wind - East Wind 13 mph/Gusts of 22 mph

Trending Headlines

Washington Radar Loop



Washington Quick Facts


National Two Day Weather Forecast


E-mail the Washington Weather Forecast

Voice your opinion or tell us about page issues...